Flag for Canada Weather past 2 weeks in Annapolis County, Nova Scotia, Canada

Now
12 °F

Cold.


Feels Like: -1 °F
Forecast: 10 / 20 °F
Wind: 9 mph from West

Location: Kejimkujik 1

Current Time: Feb 1, 2015 at 7:19:01 AM

Latest Report: Feb 1, 2015 at 7:00 AM


Visibility: N/A

Pressure: 29.65 "Hg

Humidity: 92%

Dew point: 10 °F

Location of Annapolis CountyLocation

Historic Weather in Annapolis County — Graph

°F

Annapolis County temperature yesterday

Maximum temperature yesterday: 29 °F (at 1:00 PM)
Minimum temperature yesterday: 22 °F (at 11:00 PM)
Average temperature yesterday: 27 °F

Past Weeks' High & Low Weather Summary

 TemperatureHumidityPressure
High48 °F (Jan 19, 9:00 AM)100% (Jan 19, 12:00 AM)30.37 "Hg (Jan 19, 12:00 AM)
Low1 °F (Jan 18, 12:00 AM)47% (Jan 26, 4:00 PM)28.63 "Hg (Jan 24, 11:00 PM)
Average24 °F87%29.81 "Hg
* Reported Jan 17 6:00 AM — Feb 1 6:00 AM, Annapolis County, Weather by CustomWeather, © 2014

Note: Actual official high and low records may vary slightly from our data, if they occured in-between our weather recording intervals... More about our weather records

Advertising

Annapolis County weather history for previous 24 hours

 ConditionsComfort  
Time TempWeatherWind HumidityBarometerVisibility
6:00 AM
Feb 1
14 °FCold.10 mph93%29.60 "HgN/A
5:00 AM16 °FCold.10 mph93%29.56 "HgN/A
4:00 AM16 °FCold.7 mph94%29.53 "HgN/A
3:00 AM16 °FCold.6 mph95%29.52 "HgN/A
2:00 AM17 °FCold.7 mph94%29.51 "HgN/A
1:00 AM18 °FCold.8 mph94%29.48 "HgN/A
12:00 AM19 °FCold.8 mph94%29.45 "HgN/A
11:00 PM
Jan 31
22 °FCold.7 mph100%29.41 "HgN/A
10:00 PM24 °FCold.7 mph96%29.39 "HgN/A
9:00 PM25 °FCold.8 mph96%29.35 "HgN/A
8:00 PM25 °FCold.8 mph96%29.34 "HgN/A
7:00 PM26 °FChilly.7 mph96%29.31 "HgN/A
6:00 PM27 °FChilly.8 mph96%29.28 "HgN/A
5:00 PM28 °FChilly.6 mph97%29.24 "HgN/A
4:00 PM28 °FChilly.7 mph97%29.22 "HgN/A
3:00 PM28 °FChilly.9 mph96%29.20 "HgN/A
2:00 PM28 °FChilly.7 mph96%29.22 "HgN/A
1:00 PM29 °FChilly.3 mph96%29.22 "HgN/A
12:00 PM29 °FChilly.10 mph96%29.19 "HgN/A
11:00 AM28 °FChilly.7 mph97%29.26 "HgN/A
10:00 AM27 °FChilly.8 mph98%29.26 "HgN/A
9:00 AM27 °FChilly.7 mph98%29.27 "HgN/A
8:00 AM27 °FChilly.8 mph98%29.29 "HgN/A
7:00 AM28 °FChilly.7 mph98%29.32 "HgN/A
Weather by CustomWeather, © 2014

See weather overviewHow to use our weather pages